Preview of NWS' New Version of Forecast
This preview is not operational and should not be used for support decisions.

Regional Weather Roundup (RWR)

Issued by National Weather Service (NWS)

                            
000
ASUS43 KMKX 190559
RWRWI 

WISCONSIN REGIONAL WEATHER ROUNDUP
NATIONAL WEATHER SERVICE MILWAUKEE/SULLIVAN WI
100 AM CDT FRI APR 19 2019

NOTE: "FAIR" INDICATES FEW OR NO CLOUDS BELOW 12,000 FEET WITH NO
SIGNIFICANT WEATHER AND/OR OBSTRUCTIONS TO VISIBILITY.

WIZ001-002-006>008-014>016-023>028-190700-
NORTHWEST WISCONSIN
  
CITY           SKY/WX    TMP DP  RH WIND       PRES   REMARKS
SUPERIOR ARPT  FAIR      31  30  97 E5        29.97F WCI  26          
6HR MIN TEMP:  31; 6HR MAX TEMP:  45;                                

ASHLAND        FAIR      33  33 100 W6        29.97S WCI  28          
6HR MIN TEMP:  31; 6HR MAX TEMP:  47;                                

HAYWARD        FOG       30  28  92 CALM      29.96S VSB 1/4          
6HR MIN TEMP:  29; 6HR MAX TEMP:  46; 6HR PCP: TRACE;                

SIREN          FAIR      32  31  96 CALM      29.98S                  
CUMBERLAND     FAIR      34  32  93 NW8       29.96S WCI  27          
RICE LAKE      FAIR      33  26  76 CALM      29.97S                  
6HR MIN TEMP:  33; 6HR MAX TEMP:  48;                                

CHETEK         FAIR      32  32 100 NW3       29.96F                  
LADYSMITH      FAIR      36  35  97 NW7       29.96S WCI  30          
6HR MIN TEMP:  36; 6HR MAX TEMP:  46;                                

EAU CLAIRE     NOT AVBL                                               
MENOMONIE      FAIR     N/A N/A N/A CALM      29.97R                  
NEW RICHMOND   FAIR      35  33  93 NW5       29.97F WCI  30          
6HR MIN TEMP:  34; 6HR MAX TEMP:  49;                                

OSCEOLA        FAIR      34  33  98 CALM      30.01S                  
$$
 
WIZ003>005-009-010-017-018-190700-
NORTH CENTRAL WISCONSIN
  
CITY           SKY/WX    TMP DP  RH WIND       PRES   REMARKS
MANITOWISH WTR FAIR      31  31 100 N3        29.93S                  
6HR MIN TEMP:  28; 6HR MAX TEMP:  38;                                

ARBOR VITAE    FAIR      32  30  94 CALM      29.91S FOG              
WOODRUFF       FAIR      32  30  94 CALM      29.91S FOG              
RHINELANDER    FAIR      36  32  85 N3        29.91S                  
6HR MIN TEMP:  35; 6HR MAX TEMP:  41; 6HR PCP: TRACE;                

EAGLE RIVER    FAIR      31  31 100 NW5       29.89S WCI  27          
6HR MIN TEMP:  31; 6HR MAX TEMP:  39;                                

LAND O LAKES   FAIR      30  30 100 NW3       29.92S                  
6HR MIN TEMP:  30; 6HR MAX TEMP:  39;                                

PHILLIPS       FAIR      30  30 100 CALM      29.93R                  
6HR MIN TEMP:  30; 6HR MAX TEMP:  40;                                

TOMAHAWK       FAIR      32  32  98 NW3       29.92S                  
MEDFORD        FAIR      33  33  97 N7        29.91S WCI  27          
6HR MIN TEMP:  33; 6HR MAX TEMP:  39;                                

MERRILL        FAIR      34  34 100 N3        29.91S                  
6HR MIN TEMP:  34; 6HR MAX TEMP:  40;                                

$$
 
WIZ029-030-035-036-043>047-190700-
CENTRAL WISCONSIN
  
CITY           SKY/WX    TMP DP  RH WIND       PRES   REMARKS
WAUSAU         FAIR      37  34  89 N6        29.88S WCI  32          
6HR MIN TEMP:  37; 6HR MAX TEMP:  40; 6HR PCP: TRACE;                

MOSINEE        FAIR      36  34  93 N10       29.90R WCI  28          
MARSHFIELD     FAIR      35  34  96 N8        29.90R WCI  29          
6HR MIN TEMP:  35; 6HR MAX TEMP:  41;                                

STEVENS POINT  FAIR      37  35  92 N6        29.89S WCI  32          
WAUPACA        FAIR      42  36  77 N9        29.87S                  
6HR MIN TEMP:  42; 6HR MAX TEMP:  46;                                

WAUTOMA        FAIR      40  35  83 N9        29.88R WCI  34          
6HR MIN TEMP:  40; 6HR MAX TEMP:  43;                                

WISC RAPIDS    FAIR      39  32  76 N8        29.90S WCI  33          
6HR MIN TEMP:  39; 6HR MAX TEMP:  42;                                

CAMP DOUGLAS   NOT AVBL                                               
$$
 
WIZ011>013-019>022-031-037>040-048>050-190700-
NORTHEAST WISCONSIN
  
CITY           SKY/WX    TMP DP  RH WIND       PRES   REMARKS
ANTIGO         FAIR      36  34  93 N10       29.88S WCI  28          
SHAWANO        FAIR      42  36  79 N12G17    29.87R                  
6HR MIN TEMP:  42; 6HR MAX TEMP:  45;                                

OCONTO         FAIR      40  35  83 N8        29.85S WCI  35          
6HR MIN TEMP:  40; 6HR MAX TEMP:  41;                                

STURGEON BAY   FAIR      38  35  89 N14       29.83R WCI  30          
6HR MIN TEMP:  38; 6HR MAX TEMP:  40;                                

GREEN BAY      FAIR      43  36  76 N15G25    29.84S                  
6HR MIN TEMP:  42; 6HR MAX TEMP:  44;                                

MANITOWOC      CLOUDY    41  37  86 N15       29.82R                  
6HR MIN TEMP:  41; 6HR MAX TEMP:  42; 6HR PCP: TRACE;                

APPLETON       MOCLDY    39  32  75 N16G23    29.82S WCI  30          
CLINTONVILLE   FAIR      41  33  73 N8        29.86S                  
6HR MIN TEMP:  41; 6HR MAX TEMP:  43;                                

OSHKOSH        MOCLDY    41  36  82 N12       29.85R                  
6HR MIN TEMP:  41; 6HR MAX TEMP:  44;                                

$$
 
WIZ032>034-041-042-053>061-190700-
SOUTHWEST WISCONSIN
  
CITY           SKY/WX    TMP DP  RH WIND       PRES   REMARKS
LA CROSSE      FAIR      40  34  79 N8        29.94R WCI  34          
6HR MIN TEMP:  40; 6HR MAX TEMP:  50;                                

SPARTA         FAIR      40  36  87 CALM      29.93R                  
VIROQUA        FAIR      41  38  90 N9        29.90S                  
6HR MIN TEMP:  41; 6HR MAX TEMP:  44;                                

BOSCOBEL       FAIR      45  36  70 N9        29.90R                  
6HR MIN TEMP:  45; 6HR MAX TEMP:  48;                                

PRAIRIE DU CHI FAIR      45  34  64 N13       29.90S                  
6HR MIN TEMP:  45; 6HR MAX TEMP:  48;                                

PLATTEVILLE    FAIR      42  38  87 N12       29.87R                  
$$

WIZ056-057-062-063-064-067-068-190700-
SOUTH CENTRAL WISCONSIN
  
CITY           SKY/WX    TMP DP  RH WIND       PRES   REMARKS
REEDSBURG      FAIR      40  36  83 N10G18    29.88R WCI  34          
6HR MIN TEMP:  40; 6HR MAX TEMP:  43;                                

BARABOO/DELLS  MOCLDY    40  35  83 N9G18     29.88R WCI  34          
6HR MIN TEMP:  40; 6HR MAX TEMP:  43;                                

LONE ROCK      FAIR      43  36  76 N10       29.89R                  
6HR MIN TEMP:  43; 6HR MAX TEMP:  46;                                

MINERAL POINT  FAIR      43  37  81 N12       29.87R                  
MADISON        CLOUDY    41  35  79 N12       29.85R                  
6HR MIN TEMP:  41; 6HR MAX TEMP:  43; 6HR PCP: TRACE;                

MIDDLETON      MOCLDY    42  37  83 N12G17    29.86S                  
WATERTOWN      CLOUDY    41  38  89 N9        29.83R                  
6HR MIN TEMP:  41; 6HR MAX TEMP:  44;                                

MONROE         CLOUDY    42  35  75 MISG      29.83R                  
JANESVILLE     CLOUDY    45  36  70 N14G20    29.83R                  
$$
 
WIZ051-052-058>065-066-070>072-190700-
SOUTHEAST WISCONSIN
  
CITY           SKY/WX    TMP DP  RH WIND       PRES   REMARKS
MILWAUKEE      CLOUDY    44  35  70 N15G28    29.80R                  
6HR MIN TEMP:  44; 6HR MAX TEMP:  46;                                

WAUKESHA       DRIZZLE   39  34  81 N12       29.81R WCI  32          
MILWAUKEE/TIMM CLOUDY    41  34  75 N13       29.81R                  
RACINE         CLOUDY    43  35  73 N17G29    29.80R                  
6HR MIN TEMP:  43; 6HR MAX TEMP:  45; 6HR PCP: TRACE;                

KENOSHA        CLOUDY    44  37  76 N16G30    29.79R                  
6HR MIN TEMP:  44; 6HR MAX TEMP:  45;                                

FOND DU LAC    CLOUDY    42  36  79 N17G26    29.84R                  
6HR MIN TEMP:  41; 6HR MAX TEMP:  43;                                

SHEBOYGAN      CLOUDY    42  36  79 N16G25    29.80S                  
6HR MIN TEMP:  42; 6HR MAX TEMP:  43; 6HR PCP: TRACE;                

WEST BEND      CLOUDY    41  36  81 N12G21    29.81R                  
JUNEAU         CLOUDY    40  37  86 N14G20    29.85R WCI  33          
6HR MIN TEMP:  40; 6HR MAX TEMP:  42;                                

$$

LSZ147-162-190700-
LAKE SUPERIOR
  
STATION/POSITION TIME  TEMP    WIND        PRES    WAVE
                       AIR SEA DIR/SP/G            HT/PER
                 (UTC) (F)     (DEG/KT/KT) (MB)    (FT/S)
$$
 
LMZ867-665-643>646-190700-
LAKE MICHIGAN
  
STATION/POSITION TIME  TEMP    WIND        PRES    WAVE
                       AIR SEA DIR/SP/G            HT/PER
                 (UTC) (F)     (DEG/KT/KT) (MB)    (FT/S)
NORTHPORT PIER   0540   37     330/  8/  9 1010.5R
KEWAUNEE LAKESHO 0524   41     360/  9/ 16 1009.1
SHEBOYGAN LAKESH 0500   42     350/ 18/ 20 1009.3S
MILWAUKEE LAKESH 0530   43                   N/A
KENOSHA   LAKESH 0500   44     360/ 21/ 26 1008.5
$$

TC  - TEMPERATURE IN CELSIUS
VSB - VISIBILITY IN STATUTE MILES
WCI - WIND CHILL INDEX
HX  - HEAT INDEX